RH
15 17 17 16 15 14 14 15 18 21 22 21 22 21 17 16 15 14 16 26 41 46 57 74 86 90 90 86 86 85 86 71 54 51 50 56 61 52 39 23 19 18 19
33 40 45 23 22 20 15 13 12 14 16 21 22 23 22 19 16 14 14 14 23 42 50 64 78 85 87 81 85 87 83 83 72 58 55 58 58 51 53 42 27 20 20
74 45 37 44 41 36 28 19 13 12 12 15 21 23 23 23 21 18 14 13 13 18 38 52 66 76 75 78 79 90 89 87 88 76 60 60 54 56 56 54 45 31 22
46 46 47 40 39 36 33 27 20 12 13 12 15 20 22 22 23 23 21 18 13 12 16 34 48 60 71 72 80 87 94 95 90 92 82 71 64 61 52 53 52 48 33
68 55 48 48 50 45 37 29 24 20 21 21 13 13 15 18 19 22 23 21 19 16 14 16 30 43 59 74 77 82 91 83 91 94 97 88 76 73 56 64 62 65 52
54 52 56 64 64 56 47 38 30 24 23 24 24 18 12 10 11 13 16 18 18 17 16 15 34 36 45 60 70 78 85 82 76 95 100 100 95 84 82 76 78 75 72
73 78 75 71 67 59 60 50 41 30 28 26 26 26 26 17 14 14 10 9 9 11 13 14 14 28 40 43 52 68 75 82 88 92 94 94 99 98 99 91 86 99 94
90 82 76 79 82 76 68 53 44 45 40 30 26 25 26 23 22 19 19 22 20 13 11 9 10 11 28 47 52 52 78 84 88 89 78 87 98 99 100 100 100 96 98
99 89 82 88 95 91 93 62 50 47 43 36 34 35 35 35 34 34 28 25 29 31 23 16 11 13 22 31 62 74 67 64 71 81 81 85 93 88 100 96 92 100 98
100 98 96 92 88 94 76 89 47 52 52 48 40 33 31 34 35 37 38 39 41 44 40 24 16 21 73 49 26 50 77 90 82 98 84 91 86 87 96 88 98 97 98
99 99 99 99 100 98 88 67 59 38 36 33 32 28 23 22 22 25 26 26 32 33 26 22 22 20 14 59 60 46 68 96 98 91 94 95 81 93 73 71 85 94 96
99 99 99 99 99 98 100 100 94 60 51 30 28 28 29 30 36 40 46 46 43 40 35 35 33 28 20 13 36 39 76 97 98 83 93 84 94 85 79 70 64 64 63
99 100 100 100 96 100 100 99 100 100 96 78 50 49 53 54 59 66 67 60 53 50 52 50 37 18 14 12 10 25 31 83 85 68 65 76 89 74 74 77 69 65 58
97 87 92 100 89 93 98 100 91 88 90 82 57 70 77 94 96 92 76 73 64 57 49 47 46 33 17 18 24 14 22 62 81 73 66 76 72 73 75 67 61 50 43
58 51 45 82 94 100 100 100 100 100 99 97 91 97 98 99 99 94 92 83 53 43 56 54 45 37 30 25 36 67 49 45 84 96 93 72 92 73 66 57 51 42 28
36 34 34 35 52 70 78 62 70 86 100 99 99 98 98 99 100 99 95 90 82 71 76 94 85 58 63 48 62 70 87 88 90 97 98 81 64 55 52 40 34 32 35
21 19 17 20 24 30 35 25 20 41 83 75 57 65 68 87 99 96 96 94 83 73 72 86 96 79 76 55 59 74 72 78 83 70 70 52 45 34 39 67 58 80 97
14 8 7 8 10 13 16 20 16 14 28 74 58 54 60 83 99 98 100 99 98 89 77 77 85 88 82 80 75 70 63 66 56 44 42 31 39 99 100 99 100 100 100
6 5 6 6 6 6 6 6 7 6 6 11 65 75 73 75 97 99 92 85 81 86 84 85 72 75 75 63 72 75 58 38 33 34 56 99 100 100 99 99 99 100 95
5 6 8 9 9 10 10 10 10 10 9 7 7 10 44 84 93 96 98 97 95 99 99 99 97 98 98 99 100 99 99 100 100 100 100 100 100 98 90 92 90 94 92
6 8 9 10 12 13 14 15 15 14 14 13 12 10 8 10 15 22 31 53 83 97 99 99 99 100 100 100 100 100 100 100 99 98 96 95 92 85 66 58 52 35 24
8 9 10 12 14 16 17 18 18 18 18 18 17 17 16 14 13 10 8 9 14 20 33 48 62 70 84 96 100 100 99 98 93 80 56 33 17 12 10 11 12 13 13
8 9 11 13 16 18 20 21 22 22 22 22 21 21 21 20 20 19 18 17 15 14 12 11 10 9 9 9 9 10 10 10 10 12 13 14 15 15 14 12 11 8 6
8 10 11 14 16 19 21 23 24 25 26 26 25 25 25 24 24 23 23 22 22 21 20 20 19 19 18 18 18 17 17 16 15 13 12 11 10 8 6 5 4 4 3
8 10 11 13 16 19 21 22 24 25 27 28 29 29 29 28 27 27 26 26 25 25 24 22 21 20 19 18 17 16 15 14 13 13 12 9 7 5 5 4 3 3 3
8 8 10 11 14 17 19 20 19 19 20 22 25 27 29 31 31 31 30 30 29 29 28 27 25 24 22 20 19 17 16 15 13 10 8 6 5 4 4 4 4 4 4
Wind_Speed
31 33 37 39 43 43 44 46 45 45 46 48 47 48 49 51 52 52 52 50 49 47 45 44 41 39 38 36 37 36 33 32 29 30 29 30 29 27 25 23 22 22 21
29 30 36 39 40 42 44 44 45 44 45 48 52 51 49 50 50 51 54 55 52 50 48 46 45 42 40 39 39 39 37 35 35 33 31 33 33 32 27 26 23 23 22
26 32 32 35 39 44 46 46 45 43 43 45 49 54 53 53 52 52 51 52 54 53 54 52 50 48 45 44 42 41 40 39 39 36 36 36 36 32 31 29 27 24 24
31 27 38 44 48 47 48 48 47 43 41 42 45 50 55 56 54 52 50 49 51 54 56 56 54 52 50 48 46 44 42 41 41 39 39 37 36 38 36 31 29 28 26
39 44 49 51 48 46 46 48 49 47 43 40 42 44 49 52 53 55 55 53 53 54 56 57 57 57 54 52 50 48 46 45 43 43 41 40 36 37 38 38 31 31 28
48 51 44 39 36 36 37 40 44 47 43 40 41 41 42 44 46 50 54 56 56 57 58 58 57 60 58 56 53 49 47 48 47 45 43 43 41 37 40 39 38 35 33
47 35 26 26 27 27 28 29 34 38 38 39 40 40 39 39 39 40 43 46 51 56 58 59 60 60 59 61 60 58 55 51 49 46 44 42 44 42 41 40 42 44 41
34 28 23 23 24 23 23 24 27 30 30 32 35 37 38 39 40 41 38 36 38 40 43 49 54 59 60 61 62 61 56 56 53 49 46 44 43 43 40 38 40 49 44
20 19 23 24 24 23 18 20 20 20 23 25 26 28 30 33 35 38 37 37 37 37 39 40 43 44 51 59 58 59 60 59 59 53 47 45 44 44 41 37 39 40 38
16 21 24 24 24 23 21 17 15 15 16 20 21 21 22 24 25 29 33 37 39 38 37 36 37 39 37 48 57 60 53 64 47 50 47 46 44 38 37 33 34 37 37
25 24 23 20 13 11 16 18 18 16 17 18 18 18 17 19 20 22 24 27 30 32 34 35 35 36 38 37 48 54 55 49 53 49 45 41 39 38 34 33 33 34 34
23 25 25 24 17 12 9 15 17 17 18 17 17 17 19 22 23 23 22 22 25 28 31 33 35 36 37 38 40 52 48 52 42 43 41 42 41 40 38 38 37 37 39
23 23 24 32 29 26 12 7 12 15 17 17 15 16 19 19 21 21 20 21 21 24 27 30 32 32 34 37 36 45 53 45 46 46 44 43 43 44 41 40 40 37 38
21 21 25 32 30 34 36 26 13 3 6 17 18 17 19 17 19 20 19 18 19 23 26 28 30 29 29 33 34 35 46 40 39 40 44 44 46 43 42 40 37 39 46
18 21 25 28 34 34 33 34 34 28 15 5 15 17 15 15 15 16 16 17 19 18 17 21 24 26 27 27 29 28 34 41 40 39 40 43 40 37 36 39 44 48 42
17 18 20 22 26 29 31 32 32 32 31 13 5 10 15 14 13 15 18 16 15 16 20 19 18 19 22 26 25 27 28 30 43 29 25 29 33 38 43 46 46 44 40
15 16 17 18 22 25 27 28 30 32 35 37 24 13 12 4 4 12 15 15 17 18 21 21 19 16 20 22 22 24 25 25 29 32 36 37 37 42 45 40 38 38 44
13 14 15 17 21 23 24 25 25 29 31 33 28 21 17 20 17 11 17 19 20 21 22 24 20 18 20 21 25 31 33 38 38 35 32 31 34 34 33 34 34 31 31
11 14 16 18 20 20 21 23 23 25 25 25 27 23 15 12 16 17 12 3 9 16 18 15 15 19 19 18 19 25 28 30 35 35 30 31 27 25 31 29 28 30 32
11 12 13 15 16 17 18 18 19 20 21 22 22 22 21 19 18 19 23 24 20 15 7 7 15 16 13 13 11 11 4 16 19 24 21 24 26 26 26 29 31 33 36
8 10 12 12 13 14 16 16 16 16 16 17 17 18 18 17 15 14 15 14 14 14 14 14 12 9 8 8 5 5 6 11 14 20 22 25 26 29 30 33 35 37 39
7 8 9 11 13 14 14 15 15 15 15 14 13 12 12 11 11 11 10 9 9 8 6 5 3 3 6 8 10 13 15 18 21 23 25 27 29 31 32 34 36 38 40
6 7 9 11 12 13 13 12 12 12 13 13 12 12 12 11 11 10 10 9 7 6 4 4 6 8 9 11 13 15 17 20 22 24 26 29 31 33 34 35 37 39 40
7 8 9 10 11 12 12 12 12 11 12 12 12 12 11 10 10 10 10 10 10 9 9 8 8 9 10 12 14 16 18 21 23 24 26 29 31 34 36 36 37 37 38
10 11 11 11 11 12 12 12 12 12 11 11 11 11 11 10 10 9 9 10 10 11 11 12 13 14 15 16 18 20 22 24 26 28 30 32 32 32 33 33 34 34 35
13 13 13 12 12 12 13 14 14 14 14 14 14 15 15 14 14 14 14 14 14 14 14 15 16 17 18 19 20 22 24 26 28 29 29 29 29 29 29 30 31 32 32
Wind_Direction
278 271 270 276 270 267 264 261 258 254 250 247 249 249 249 249 246 245 245 243 245 246 248 248 249 248 248 252 254 255 254 257 256 261 259 260 263 262 264 267 270 271 268
265 267 263 269 280 277 269 262 260 259 254 248 245 247 247 247 246 244 244 245 242 244 246 246 247 246 247 250 252 253 254 255 256 256 257 260 263 264 265 266 267 268 268
259 265 278 275 272 273 272 270 263 260 257 253 248 245 244 245 245 244 244 242 244 240 243 245 247 247 247 248 251 252 253 254 255 256 256 261 267 269 265 265 266 269 269
269 284 285 284 284 276 271 267 266 261 257 254 250 246 245 244 245 246 247 246 244 244 241 242 244 247 248 249 250 251 251 252 253 253 256 260 264 267 267 263 265 264 266
281 288 290 291 285 278 271 267 265 262 259 257 253 249 246 246 244 243 243 243 244 243 243 242 244 245 245 247 247 249 250 251 252 252 255 257 257 263 266 271 269 266 265
287 289 286 281 280 278 273 268 264 263 260 258 255 253 249 247 246 244 243 241 242 244 243 242 240 243 245 245 247 247 249 254 252 250 252 256 255 257 265 268 270 270 268
296 289 277 277 280 281 280 272 263 261 258 254 252 250 251 249 249 248 246 244 244 244 244 245 242 241 243 244 245 246 245 247 252 252 254 255 255 257 258 259 265 270 272
297 290 279 283 293 289 282 277 267 256 247 247 247 248 250 248 246 244 245 247 249 251 251 250 248 244 240 242 244 245 243 242 246 249 251 255 257 258 263 262 262 266 266
318 298 279 284 293 292 283 285 273 255 240 241 242 245 249 251 251 248 247 249 251 249 249 250 250 248 242 240 242 244 243 247 244 245 248 252 255 257 253 261 263 267 271
331 307 297 292 285 283 283 279 273 254 237 233 236 240 242 242 243 240 241 243 247 249 249 251 253 250 241 238 240 243 243 241 244 241 245 246 250 254 257 264 265 282 267
52 40 35 27 359 291 280 275 269 256 238 226 231 238 242 243 244 247 249 251 250 249 249 251 251 254 254 244 238 239 244 236 242 240 239 242 248 247 256 263 264 269 270
38 34 33 27 9 336 303 267 260 256 256 247 245 246 251 252 256 260 263 262 260 255 252 252 252 251 252 256 241 238 241 241 243 241 240 243 245 247 254 255 261 263 269
38 36 29 19 46 49 38 304 275 265 250 252 257 257 260 262 261 262 259 257 256 256 254 253 254 249 242 245 250 239 237 245 243 238 241 244 242 247 253 258 264 264 266
26 27 32 30 53 59 60 61 69 105 242 242 244 247 257 267 267 264 258 256 262 266 261 257 254 255 255 249 243 238 232 241 240 236 237 240 245 249 253 260 260 272 273
26 26 29 35 43 50 55 55 57 58 47 221 225 234 252 265 263 243 247 256 266 256 260 257 255 250 247 242 244 230 231 235 242 237 238 241 249 255 259 260 262 271 275
21 24 29 30 41 47 46 44 42 39 32 35 162 216 231 245 256 244 246 241 253 246 256 249 249 246 240 234 228 229 230 232 247 246 237 245 249 253 256 261 263 263 265
19 22 27 31 40 43 45 46 38 37 37 41 60 65 49 5 273 255 248 247 251 256 260 258 254 231 236 223 226 231 230 243 248 240 243 246 251 255 256 261 266 265 266
10 21 25 30 34 37 37 38 38 38 39 49 57 63 57 49 30 349 269 257 258 257 270 263 250 255 255 247 239 234 228 234 239 244 246 248 250 260 268 259 253 260 269
17 18 23 28 33 35 36 40 32 38 38 43 55 61 73 60 44 50 62 299 262 258 247 247 227 243 242 236 238 236 236 234 239 246 238 246 242 251 256 263 267 269 272
13 14 17 22 25 24 28 32 35 34 31 32 40 47 48 56 54 50 59 64 66 63 98 141 190 211 200 210 205 179 185 197 211 215 237 249 253 252 259 264 266 269 269
360 5 8 14 19 18 18 21 26 30 28 29 33 35 35 33 31 32 34 38 46 51 59 60 74 97 136 178 198 239 236 228 232 242 250 257 261 265 268 269 269 270 270
353 356 0 7 11 10 11 11 9 11 21 23 27 33 32 28 19 17 24 27 29 31 27 18 352 290 249 235 235 238 245 252 257 262 268 272 271 272 274 275 276 275 276
334 344 352 358 359 357 358 358 358 359 5 7 9 9 8 9 11 8 7 3 356 343 321 289 274 268 270 270 269 269 269 270 272 273 274 273 274 275 276 277 279 280 282
310 323 334 341 341 340 342 344 346 352 356 354 354 352 352 352 352 350 346 341 335 327 316 302 288 277 270 267 265 265 266 267 269 272 274 279 283 285 286 287 287 288 288
304 310 313 318 321 322 323 324 330 335 338 340 339 336 334 333 330 326 323 320 315 311 306 302 300 298 296 295 295 293 291 290 291 291 289 287 285 284 284 286 288 288 289
280 285 290 293 296 300 303 308 313 317 321 325 327 326 326 326 325 324 323 320 317 315 313 309 305 302 299 296 296 297 296 296 296 294 291 288 286 286 286 287 288 290 291